Regional Weather Roundup
Issued by NWS

Home | Current Version | Previous Version | Graphics & Text | Print | Product List | Glossary On
Versions: 1 2 3 4 5 6 7 8 9 10 11 12 13 14 15 16 17 18 19 20 21 22 23 24 25 26 27 28 29 30 31 32 33 34 35 36 37 38 39 40 41 42 43 44 45 46 47 48 49 50
000
ASUS43 KDMX 241607
RWRIA

WEATHER ROUNDUP FOR IOWA
NATIONAL WEATHER SERVICE DES MOINES IA
1100 AM CDT SUN MAY 24 2015

NOTE: "FAIR" INDICATES FEW OR NO CLOUDS BELOW 12,000 FEET WITH NO
SIGNIFICANT WEATHER AND/OR OBSTRUCTIONS TO VISIBILITY.

* - THESE STATIONS ARE NOT NWS STATIONS...THUS NOT UNDER NWS
QUALITY CONTROL.  THEY ALSO DO NOT REPORT WEATHER SUCH
AS PRECIPITATION OR FOG.

IAZ001>003-012>014-020>022-031>034-043>046-241700-
   NORTHWEST IOWA

CITY           SKY/WX    TMP DP  RH WIND       PRES   REMARKS
CARROLL *      CLOUDY    61  61 100 SE12G20   29.85F
CHEROKEE *     LGT RAIN  61  61 100 E13       29.87F
DENISON *      PTSUNNY   61  61 100 SE5       29.83F
LE MARS *      CLOUDY    63  59  88 E8G17     29.88F
ORANGE CITY *  CLOUDY    61  57  88 E12       29.88F
SHELDON *      CLOUDY    61  59  94 E14G22    29.88F
SIOUX CITY     CLOUDY    63  59  87 E12       29.85F FOG
SPENCER        LGT RAIN  60  58  92 E16       29.90F FOG
STORM LAKE *   CLOUDY    59  59 100 E14G20    29.88F FOG
$$

IAZ055>058-069>071-079>083-090>094-241700-
   SOUTHWEST IOWA

CITY           SKY/WX    TMP DP  RH WIND       PRES   REMARKS
ATLANTIC *     CLOUDY    63  63 100 S9G16     29.84F
AUDUBON *      DRIZZLE   63  59  88 SE8       29.86S
CLARINDA *     CLOUDY    64  63  94 S9        29.86S
COUNCIL BLFS * CLOUDY    61  61 100 S8        29.85R
CRESTON *      CLOUDY    63  63 100 S14       29.86F
HARLAN  *      CLOUDY    63  63 100 S7        29.87F
LAMONI         CLOUDY    65  61  87 S10       29.88S
RED OAK *      CLOUDY    63  63 100 S10       29.84S FOG
SHENANDOAH *   CLOUDY    64  64 100 S8        29.85R
$$

IAZ047>049-059>061-072>074-084-241700-
   CENTRAL IOWA

CITY           SKY/WX    TMP DP  RH WIND       PRES   REMARKS
AMES           LGT RAIN  61  59  93 SE13G21   29.89F FOG
ANKENY *       CLOUDY    61  61 100 SE13G22   29.88F FOG
CHARITON *     PTSUNNY   63  61  94 SE12      29.90S
DES MOINES     CLOUDY    63  60  90 SE13      29.88F FOG
GRINNELL*      CLOUDY    59  59 100 E17       29.93F
KNOXVILLE *    CLOUDY    63  59  88 SE10G18   29.89F
MARSHALLTOWN   LGT RAIN  60  59  96 E15       29.92F FOG
PELLA *        CLOUDY    61  61 100 SE12      29.92F
PERRY *        CLOUDY    61  61 100 SE13G21   29.86F FOG
$$

IAZ004>006-015-016-023>025-035-036-241700-
   NORTH CENTRAL IOWA

CITY           SKY/WX    TMP DP  RH WIND       PRES   REMARKS
ALGONA *       LGT RAIN  59  59 100 E16G24    29.92F
CLARION *      CLOUDY    59  59 100 SE22G30   29.92S FOG
ESTHERVILLE    LGT RAIN  59  57  93 E15       29.92F FOG
FORT DODGE *   CLOUDY    59  55  88 E17G24    29.90F
MASON CITY     LGT RAIN  60  57  89 E18G29    29.97F
FOREST CITY *  RAIN      57  57 100 E15G23    29.95F
IOWA FALLS *   RAIN      59  57  94 E18G28    29.94F
$$

IAZ007>011-017>019-026>030-037>042-050>054-066-241700-
   NORTHEAST IOWA

CITY           SKY/WX    TMP DP  RH WIND       PRES   REMARKS
CEDAR RAPIDS   HVY RAIN  60  59  96 E14G23    29.98F
CHARLES CITY * PTSUNNY   59  59 100 E16       30.01F FOG
CLINTON *      CLOUDY    63  55  77 E14       30.07F
DECORAH *      CLOUDY    59  57  94 SE13G20   30.04F
DUBUQUE        LGT RAIN  58  56  93 E13       30.07F FOG
MONTICELLO *   LGT RAIN  59  59 100 E10       30.03F
OELWEIN *      CLOUDY    57  57 100 E18G25    30.02F FOG
WATERLOO       LGT RAIN  59  57  93 E16G23    29.98F FOG
$$

IAZ064-065-067-068-078-241700-
   EAST CENTRAL IOWA

CITY           SKY/WX    TMP DP  RH WIND       PRES   REMARKS
DAVENPORT      RAIN      61  57  87 E13       30.03F FOG
IOWA CITY      CLOUDY    61  59  93 E10       30.00F
MT. PLEASANT * CLOUDY    68  61  77 SE15G21   29.96F
MUSCATINE *    CLOUDY    64  61  88 E8G15     29.99F
QUAD CITIES    CLOUDY    62  58  86 E12       30.01F
$$

IAZ062-063-075>077-085>089-095>099-241700-
   SOUTHEAST IOWA

CITY           SKY/WX    TMP DP  RH WIND       PRES   REMARKS
BURLINGTON     CLOUDY    69  61  75 SE10      29.97F
FAIRFIELD *    MOSUNNY   66  61  82 SE14G21   29.94F
FORT MADISON * MOSUNNY   72  63  73 SE12G17   29.97F
KEOKUK *       MOSUNNY   72  63  73 S10G18    29.96S
OSKALOOSA *    CLOUDY    64  61  88 SE14      29.93F
CENTERVILLE *  CLOUDY    64  64 100 SE13      29.93S
OTTUMWA        CLOUDY    66  62  87 SE13      29.92F
WASHINGTON *   PTSUNNY   66  63  88 SE15G23   29.98F
$$

ABBREVIATIONS USED IN REMARKS
   TC - TEMPERATURES IN CELSIUS
  WCI - WIND CHILL INDEX
   HX - HEAT INDEX
  VSB - VISIBILITY
$$



USA.gov is the U.S. government's official web portal to all federal, state and local government web resources and services.